Location: Pianadetto
(44.4000°N, 10.1000°E)
Time: 20:14:32
(UTC+00:00)

COSMOS 2441 - Pass Details

Date: 26 May 2022
Orbit: 707 x 732 km, 98.1° (Epoch: 02 July)

Event Time Altitude Azimuth Distance (km) Brightness Sun altitude
Rises 02:11:34 0° 11° (NNE) 3,152 8.8 -13.3°
Reaches altitude 10° 02:13:51 10° 11° (N) 2,223 7.9 -13.0°
Maximum altitude 02:18:44 79° 285° (WNW) 739 4.3 -12.4°
Enters shadow 02:22:53 14° 200° (SSW) 1,926 6.0 -11.9°
